Location: Unspecified
(0.0000°N, 0.0000°E)
Time: 08:06:10
(UTC+00:00)

Transit 4A - Pass Details

Date: 30 May 2022
Orbit: 864 x 980 km, 66.8° (Epoch: 24 June)

Event Time Altitude Azimuth Distance (km) Brightness Sun altitude
Rises 02:18:59 0° 228° (SW) 3,589 - -49.2°
Reaches altitude 10° 02:22:06 10° 243° (WSW) 2,663 - -48.6°
Maximum altitude 02:26:41 21° 290° (WNW) 1,983 - -47.6°
Drops below altitude 10° 02:31:20 10° 338° (NNW) 2,702 - -46.7°
Exits shadow 02:34:06 - 352° (N) 3,513 11.1 -46.1°
Sets 02:34:33 0° 353° (N) 3,657 11.3 -46.0°
